When you browse on this site, cookies collect data to enhance your experience and personalize the content and advertising you see.
Visit our Privacy Policy to learn more. By continuing to use the site, you agree to this use of cookies and data.
  • In Portugal
  • List of Countries
  • For 7 days
  • Water Temperature
  • Satellite Maps
  • Weather Map
  • Weather Widgets
  • user-avatar
    Login

    Hourly Weather Pinsk

    Today, 26 May, Sunday

    Time Temperature Precipitation Wind Pressure Humidity
    00:00 +14°C° 0 mm 2 mps 745 mmHg 91%
    01:00 +13°C° 0 mm 2 mps 746 mmHg 93%
    02:00 +12°C° 0 mm 2 mps 746 mmHg 95%
    03:00 +12°C° 0 mm 2 mps 746 mmHg 95%
    04:00 +10°C° 0 mm 2 mps 746 mmHg 95%
    05:00 +10°C° 0 mm 2 mps 746 mmHg 95%
    06:00 +12°C° 0 mm 2 mps 746 mmHg 91%
    07:00 +12°C° 0 mm 2 mps 747 mmHg 86%
    08:00 +13°C° 0 mm 2 mps 747 mmHg 82%
    09:00 +14°C° 0 mm 2 mps 747 mmHg 80%
    10:00 +15°C° 0 mm 2 mps 747 mmHg 78%
    11:00 +16°C° 0 mm 3 mps 747 mmHg 75%
    12:00 +17°C° 0 mm 4 mps 747 mmHg 72%
    13:00 +18°C° 0 mm 4 mps 747 mmHg 69%
    14:00 +19°C° 0 mm 5 mps 747 mmHg 65%
    15:00 +19°C° 0 mm 5 mps 747 mmHg 66%
    16:00 +19°C° 0 mm 5 mps 747 mmHg 67%
    17:00 +19°C° 0 mm 5 mps 747 mmHg 67%
    18:00 +17°C° 0 mm 4 mps 746 mmHg 73%
    19:00 +16°C° 0 mm 3 mps 746 mmHg 79%
    20:00 +14°C° 0 mm 2 mps 746 mmHg 85%
    21:00 +14°C° 0 mm 2 mps 747 mmHg 87%
    22:00 +13°C° 0 mm 1 mps 747 mmHg 88%
    23:00 +12°C° 0 mm 1 mps 747 mmHg 90%

    Tomorrow, 27 May, Monday

    Time Temperature Precipitation Wind Pressure Humidity
    00:00 +12°C° 0 mm 1 mps 747 mmHg 91%
    01:00 +12°C° 0 mm 2 mps 747 mmHg 92%
    02:00 +12°C° 0 mm 2 mps 747 mmHg 93%
    03:00 +12°C° 0 mm 2 mps 747 mmHg 93%
    04:00 +12°C° 0 mm 2 mps 747 mmHg 94%
    05:00 +11°C° 0 mm 3 mps 747 mmHg 95%
    06:00 +13°C° 0 mm 3 mps 747 mmHg 89%
    07:00 +17°C° 0 mm 3 mps 747 mmHg 83%
    08:00 +19°C° 0 mm 3 mps 747 mmHg 78%
    09:00 +20°C° 0 mm 4 mps 747 mmHg 72%
    10:00 +22°C° 0 mm 4 mps 747 mmHg 66%
    11:00 +23°C° 0 mm 5 mps 747 mmHg 61%
    12:00 +25°C° 0.5 mm 5 mps 747 mmHg 61%
    13:00 +25°C° 0.5 mm 5 mps 746 mmHg 62%
    14:00 +25°C° 0.5 mm 5 mps 746 mmHg 63%
    15:00 +25°C° 0.4 mm 5 mps 746 mmHg 66%
    16:00 +25°C° 0.4 mm 4 mps 746 mmHg 68%
    17:00 +25°C° 0.4 mm 4 mps 746 mmHg 71%
    18:00 +22°C° 0.1 mm 3 mps 746 mmHg 75%
    19:00 +21°C° 0.1 mm 3 mps 746 mmHg 80%
    20:00 +20°C° 0.1 mm 3 mps 746 mmHg 84%
    21:00 +19°C° 0 mm 3 mps 746 mmHg 86%
    22:00 +18°C° 0 mm 3 mps 746 mmHg 88%
    23:00 +18°C° 0 mm 3 mps 746 mmHg 90%

    Day after tomorrow, 28 May, Tuesday

    Time Temperature Precipitation Wind Pressure Humidity
    00:00 +17°C° 0 mm 2 mps 746 mmHg 91%
    01:00 +17°C° 0 mm 2 mps 746 mmHg 91%
    02:00 +16°C° 0 mm 2 mps 745 mmHg 92%
    03:00 +17°C° 0 mm 2 mps 745 mmHg 92%
    04:00 +17°C° 0 mm 2 mps 745 mmHg 91%
    05:00 +17°C° 0 mm 3 mps 745 mmHg 91%
    06:00 +17°C° 0.1 mm 3 mps 744 mmHg 91%
    07:00 +18°C° 0.1 mm 3 mps 744 mmHg 91%
    08:00 +18°C° 0.1 mm 2 mps 744 mmHg 91%
    09:00 +20°C° 0.3 mm 3 mps 744 mmHg 85%
    10:00 +22°C° 0.3 mm 4 mps 744 mmHg 78%
    11:00 +25°C° 0.3 mm 5 mps 744 mmHg 72%
    12:00 +26°C° 0.1 mm 5 mps 743 mmHg 69%
    13:00 +27°C° 0.1 mm 5 mps 743 mmHg 65%
    14:00 +28°C° 0.1 mm 6 mps 743 mmHg 62%
    15:00 +27°C° 1.2 mm 6 mps 743 mmHg 67%
    16:00 +26°C° 1.2 mm 5 mps 743 mmHg 72%
    17:00 +25°C° 1.2 mm 5 mps 743 mmHg 77%
    18:00 +22°C° 0.3 mm 4 mps 743 mmHg 79%
    19:00 +21°C° 0.3 mm 4 mps 743 mmHg 81%
    20:00 +20°C° 0.3 mm 4 mps 742 mmHg 83%
    21:00 +20°C° 0.1 mm 4 mps 742 mmHg 83%
    22:00 +19°C° 0.1 mm 5 mps 742 mmHg 84%
    23:00 +19°C° 0.1 mm 5 mps 742 mmHg 85%

    29 May, Wednesday

    Time Temperature Precipitation Wind Pressure Humidity
    00:00 +17°C° 0.3 mm 5 mps 742 mmHg 87%
    01:00 +17°C° 0.3 mm 5 mps 742 mmHg 88%
    02:00 +16°C° 0.3 mm 5 mps 742 mmHg 90%
    03:00 +17°C° 0.3 mm 4 mps 742 mmHg 91%
    04:00 +15°C° 0.3 mm 4 mps 742 mmHg 92%
    05:00 +15°C° 0.3 mm 4 mps 742 mmHg 94%
    06:00 +17°C° 0.4 mm 4 mps 742 mmHg 92%
    07:00 +18°C° 0.4 mm 4 mps 742 mmHg 91%
    08:00 +19°C° 0.4 mm 4 mps 743 mmHg 89%
    09:00 +20°C° 0 mm 4 mps 743 mmHg 87%
    10:00 +21°C° 0 mm 4 mps 743 mmHg 84%
    11:00 +22°C° 0 mm 4 mps 743 mmHg 81%
    12:00 +22°C° 0.3 mm 4 mps 743 mmHg 79%
    13:00 +23°C° 0.3 mm 4 mps 744 mmHg 77%
    14:00 +24°C° 0.3 mm 3 mps 744 mmHg 74%
    15:00 +24°C° 1.1 mm 3 mps 744 mmHg 74%
    16:00 +24°C° 1.1 mm 3 mps 744 mmHg 74%
    17:00 +23°C° 1.1 mm 4 mps 744 mmHg 74%
    18:00 +22°C° 0.2 mm 3 mps 744 mmHg 78%
    19:00 +21°C° 0.2 mm 2 mps 744 mmHg 82%
    20:00 +20°C° 0.2 mm 1 mps 744 mmHg 86%
    21:00 +20°C° 0.7 mm 1 mps 745 mmHg 89%
    22:00 +19°C° 0.7 mm 1 mps 745 mmHg 92%
    23:00 +18°C° 0.7 mm 1 mps 745 mmHg 94%

    30 May, Thursday

    Time Temperature Precipitation Wind Pressure Humidity
    00:00 +17°C° 0 mm 2 mps 745 mmHg 95%
    01:00 +17°C° 0 mm 2 mps 745 mmHg 96%
    02:00 +16°C° 0 mm 2 mps 745 mmHg 98%
    03:00 +16°C° 0.1 mm 2 mps 745 mmHg 98%
    04:00 +16°C° 0.1 mm 2 mps 745 mmHg 98%
    05:00 +16°C° 0.1 mm 2 mps 745 mmHg 98%
    06:00 +17°C° 0 mm 2 mps 745 mmHg 96%
    07:00 +17°C° 0 mm 3 mps 746 mmHg 94%
    08:00 +18°C° 0 mm 3 mps 746 mmHg 92%
    09:00 +17°C° 0.1 mm 4 mps 746 mmHg 92%
    10:00 +17°C° 0.1 mm 4 mps 747 mmHg 91%
    11:00 +15°C° 0.1 mm 5 mps 747 mmHg 91%
    12:00 +16°C° 0 mm 5 mps 747 mmHg 87%
    13:00 +17°C° 0 mm 5 mps 748 mmHg 82%
    14:00 +17°C° 0 mm 5 mps 748 mmHg 78%
    15:00 +17°C° 0 mm 5 mps 748 mmHg 78%
    16:00 +16°C° 0 mm 5 mps 749 mmHg 78%
    17:00 +15°C° 0 mm 5 mps 749 mmHg 78%
    18:00 +14°C° 0 mm 5 mps 749 mmHg 79%
    19:00 +13°C° 0 mm 4 mps 750 mmHg 81%
    20:00 +13°C° 0 mm 4 mps 750 mmHg 82%
    21:00 +12°C° 0 mm 3 mps 751 mmHg 82%
    22:00 +11°C° 0 mm 3 mps 751 mmHg 83%
    23:00 +10°C° 0 mm 3 mps 751 mmHg 83%

    31 May, Friday

    Time Temperature Precipitation Wind Pressure Humidity
    00:00 +9°C° 0 mm 3 mps 752 mmHg 84%
    01:00 +8°C° 0 mm 2 mps 752 mmHg 86%
    02:00 +8°C° 0 mm 2 mps 752 mmHg 87%
    03:00 +8°C° 0 mm 2 mps 753 mmHg 86%
    04:00 +8°C° 0 mm 2 mps 753 mmHg 85%
    05:00 +8°C° 0 mm 2 mps 753 mmHg 85%
    06:00 +10°C° 0 mm 3 mps 753 mmHg 80%
    07:00 +11°C° 0 mm 3 mps 754 mmHg 75%
    08:00 +13°C° 0 mm 3 mps 754 mmHg 70%
    09:00 +14°C° 0 mm 3 mps 754 mmHg 67%
    10:00 +16°C° 0 mm 3 mps 754 mmHg 64%
    11:00 +18°C° 0 mm 4 mps 754 mmHg 61%
    12:00 +18°C° 0 mm 4 mps 755 mmHg 58%
    13:00 +19°C° 0 mm 4 mps 755 mmHg 56%
    14:00 +19°C° 0 mm 4 mps 755 mmHg 53%
    15:00 +19°C° 0 mm 4 mps 755 mmHg 54%
    16:00 +19°C° 0 mm 4 mps 755 mmHg 55%
    17:00 +19°C° 0 mm 4 mps 755 mmHg 56%
    18:00 +17°C° 0 mm 3 mps 755 mmHg 62%
    19:00 +16°C° 0 mm 3 mps 755 mmHg 67%
    20:00 +14°C° 0 mm 2 mps 756 mmHg 73%
    21:00 +13°C° 0 mm 2 mps 756 mmHg 73%
    22:00 +12°C° 0 mm 2 mps 756 mmHg 74%
    23:00 +11°C° 0 mm 1 mps 757 mmHg 74%
    Show more